Regional Weather Roundup
Issued by NWS

Home | Current Version | Previous Version | Text Only | Print | Product List | Glossary Off
Versions: 1 2 3 4 5 6 7 8 9 10 11 12 13 14 15 16 17 18 19 20 21 22 23 24 25 26 27 28 29 30 31 32 33 34 35 36 37 38 39 40 41 42 43 44 45 46 47 48 49 50

000
ASUS43 KLSX 290110
RWRMO

WEATHER SUMMARY FOR MISSOURI
NATIONAL WEATHER SERVICE SPRINGFIELD MO
800 PM CDT SUN AUG 28 2016

NOTE: "FAIR" INDICATES FEW OR NO CLOUDS BELOW 12,000 FEET WITH NO
       SIGNIFICANT WEATHER AND/OR OBSTRUCTIONS TO VISIBILITY.
       CURRENT SKY AND/OR WEATHER CONDITIONS ARE NOT AVAILABLE FOR
       CHILLICOTHE AND FARMINGTON.

MOZ001>031-035>038-043-044-053-054-290200-
...NORTHERN AND WESTERN MISSOURI...

CITY           SKY/WX    TMP DP  RH WIND       PRES   REMARKS
KANSAS CTY INT MOCLDY    84  71  65 E9        30.08R THUNDER
KANSAS C DTWN  MOCLDY    85  73  67 E9        30.06R THUNDER HX  91
LEE`S SUMMIT   CLOUDY    82  73  74 E14G21    30.09R THUNDER
ST JOSEPH      CLEAR     73  69  87 N7        30.10R
KIRKSVILLE     MOCLDY    76  69  79 E3        30.14R

$$
MOZ066>068-077>081-088>096-101>105-290200-
...SOUTHWEST MISSOURI...

CITY           SKY/WX    TMP DP  RH WIND       PRES   REMARKS
SPRINGFIELD    CLEAR     83  67  58 SE8       30.09R
JOPLIN         CLEAR     83  68  60 CALM      30.07R
BRANSON        MOCLDY    79  73  83 CALM      30.10R

$$
MOZ032>034-039>042-045>050-055>058-069>072-290200-
...CENTRAL MISSOURI...

CITY           SKY/WX    TMP DP  RH WIND       PRES   REMARKS
COLUMBIA       CLEAR     80  74  81 E5        30.11R
JEFFERSON CITY CLEAR     80  73  79 CALM      30.09R
ROLLA          CLEAR     78  72  81 E6        30.11R
SEDALIA        CLOUDY    79  73  82 NE5       30.11R
WHITEMAN AFB   PTCLDY    80  75  85 E3        30.08R
OSAGE BEACH    CLEAR     78  73  84 CALM      30.10R

$$
MOZ051-052-059>065-290200-
...EAST CENTRAL MISSOURI...

CITY           SKY/WX    TMP DP  RH WIND       PRES   REMARKS
ST LOUIS INTL  PTCLDY    88  70  55 E7        30.10R HX  93
SPIRIT OF STL  PTCLDY    81  76  84 SW3       30.08R
ST CHARLES     PTCLDY    82  77  84 NE6       30.08R HX  90

$$
MOZ072>076-082>087-097>100-106>115-290200-
...SOUTH CENTRAL AND SOUTHEAST MISSOURI...

CITY           SKY/WX    TMP DP  RH WIND       PRES   REMARKS
CAPE GIRARDEAU CLEAR     82  76  81 E5        30.07R
FARMINGTON     CLEAR     79  74  84 CALM      30.12R
POPLAR BLUFF   CLEAR     82  75  79 E5        30.05R
WEST PLAINS    CLEAR     80  71  74 CALM      30.13R

$$




USA.gov is the U.S. government's official web portal to all federal, state and local government web resources and services.